Regional Weather Roundup
Issued by NWS

Home | Current Version | Previous Version | Text Only | Print | Product List | Glossary On
Versions: 1 2 3 4 5 6 7 8 9 10 11 12 13 14 15 16 17 18 19 20 21 22 23 24 25 26 27 28 29 30 31 32 33 34 35 36 37 38 39 40 41 42 43 44 45 46 47
000
ASUS43 KDMX 101307
RWRIA

WEATHER ROUNDUP FOR IOWA
NATIONAL WEATHER SERVICE DES MOINES IA
800 AM CDT THU JUL 10 2014

NOTE: "FAIR" INDICATES FEW OR NO CLOUDS BELOW 12,000 FEET WITH NO
SIGNIFICANT WEATHER AND/OR OBSTRUCTIONS TO VISIBILITY.

* - THESE STATIONS ARE NOT NWS STATIONS...THUS NOT UNDER NWS
QUALITY CONTROL.  THEY ALSO DO NOT REPORT WEATHER SUCH
AS PRECIPITATION OR FOG.

IAZ001>003-012>014-020>022-031>034-043>046-101400-
   NORTHWEST IOWA

CITY           SKY/WX    TMP DP  RH WIND       PRES   REMARKS
CARROLL *      PTSUNNY   66  61  82 S6        30.08R
CHEROKEE *     SUNNY     64  63  94 S6        30.06R
DENISON *      MOSUNNY   66  61  82 S12G18    30.05S
LE MARS *      CLOUDY    66  63  88 S8        30.05R
ORANGE CITY *  MOSUNNY   68  61  77 S7        30.05R
SHELDON *      SUNNY     64  63  94 S9        30.04R
SIOUX CITY     PTSUNNY   67  64  90 S7        30.04R
SPENCER        SUNNY     66  62  87 S7        30.06R FOG
STORM LAKE *   SUNNY     64  63  94 S8        30.08R
$$

IAZ055>058-069>071-079>083-090>094-101400-
   SOUTHWEST IOWA

CITY           SKY/WX    TMP DP  RH WIND       PRES   REMARKS
ATLANTIC *     CLOUDY    66  61  82 S6        30.08R
AUDUBON *      MOSUNNY   66  63  88 SE3       30.10R
CLARINDA *     PTSUNNY   70  63  78 SE5       30.09S
COUNCIL BLFS * PTSUNNY   68  64  88 S9        30.05S
CRESTON *      CLOUDY    64  61  88 S9        30.11R
HARLAN  *      PTSUNNY   66  63  88 SE5       30.11R
LAMONI         CLOUDY    65  59  81 S7        30.11R
RED OAK *      PTSUNNY   70  63  78 S8        30.07S
SHENANDOAH *   PTSUNNY   68  63  83 SE8       30.07R
$$

IAZ047>049-059>061-072>074-084-101400-
   CENTRAL IOWA

CITY           SKY/WX    TMP DP  RH WIND       PRES   REMARKS
AMES           MOSUNNY   65  61  87 SE3       30.10R
ANKENY *       SUNNY     66  63  88 SE5       30.10R
CHARITON *     MOSUNNY   66  61  82 S8        30.12R
DES MOINES     MOSUNNY   68  59  73 S7        30.10R
GRINNELL*      SUNNY     66  59  77 S8        30.12R
KNOXVILLE *    SUNNY     66  59  77 S6        30.10R
MARSHALLTOWN   SUNNY     66  60  81 S5        30.10R
PELLA *        SUNNY     68  61  77 S6        30.12R
PERRY *          N/A     64  63  94 S7        30.09R
$$

IAZ004>006-015-016-023>025-035-036-101400-
   NORTH CENTRAL IOWA

CITY           SKY/WX    TMP DP  RH WIND       PRES   REMARKS
ALGONA *       SUNNY     66  63  88 S8        30.08S
CLARION *      SUNNY     66  61  82 S9        30.09R
ESTHERVILLE    SUNNY     64  62  93 S6        30.06S FOG
FORT DODGE *   SUNNY     64  59  82 S5        30.10R
MASON CITY     MOSUNNY   66  63  90 S8        30.10R
FOREST CITY *  SUNNY     64  64 100 S5        30.09R
IOWA FALLS *     N/A     66  61  82 S7        30.11R
$$

IAZ007>011-017>019-026>030-037>042-050>054-066-101400-
   NORTHEAST IOWA

CITY           SKY/WX    TMP DP  RH WIND       PRES   REMARKS
CEDAR RAPIDS   SUNNY     65  60  84 S3        30.11R
CHARLES CITY * PTSUNNY   64  59  82 S6        30.11R
CLINTON *      SUNNY     66  57  72 S6        30.16R
DECORAH *        N/A    N/A N/A N/A MISG        N/A
DUBUQUE        MOSUNNY   66  58  75 S9        30.14R
MONTICELLO *   CLOUDY    63  61  94 CALM      30.13R
OELWEIN *      MOSUNNY   64  64 100 S7        30.13R
WATERLOO       PTSUNNY   68  58  70 S6        30.10R
$$

IAZ064-065-067-068-078-101400-
   EAST CENTRAL IOWA

CITY           SKY/WX    TMP DP  RH WIND       PRES   REMARKS
DAVENPORT      SUNNY     67  59  75 SE6       30.14R
IOWA CITY      SUNNY     66  61  84 SE5       30.13R
MT. PLEASANT * SUNNY     68  61  77 S5        30.14R
MUSCATINE *    SUNNY     64  63  94 CALM      30.13R
QUAD CITIES    SUNNY     65  58  78 E3        30.14R
$$

IAZ062-063-075>077-085>089-095>099-101400-
   SOUTHEAST IOWA

CITY           SKY/WX    TMP DP  RH WIND       PRES   REMARKS
BURLINGTON     SUNNY     68  64  87 S5        30.13R
FAIRFIELD *    SUNNY     66  59  77 S5        30.13R
FORT MADISON * SUNNY     70  63  78 S3        30.15R
KEOKUK *       SUNNY     68  61  77 CALM      30.14R
OSKALOOSA *      N/A     66  61  82 S5        30.13R
CENTERVILLE *  SUNNY     64  61  88 S6        30.15R
OTTUMWA        SUNNY     65  59  81 S6        30.12R
WASHINGTON *   SUNNY     66  63  88 S6        30.13R
$$

ABBREVIATIONS USED IN REMARKS
   TC - TEMPERATURES IN CELSIUS
  WCI - WIND CHILL INDEX
   HX - HEAT INDEX
  VSB - VISIBILITY
$$




USA.gov is the U.S. government's official web portal to all federal, state and local government web resources and services.